CST,Max TemperatureF,Mean TemperatureF,Min TemperatureF,Max Dew PointF,MeanDew PointF,Min DewpointF,Max Humidity, Mean Humidity, Min Humidity, Max Sea Level PressureIn, Mean Sea Level PressureIn, Min Sea Level PressureIn, Max VisibilityMiles, Mean VisibilityMiles, Min VisibilityMiles, Max Wind SpeedMPH, Mean Wind SpeedMPH, Max Gust SpeedMPH,PrecipitationIn, CloudCover, Events, WindDirDegrees
2012-11-1,45,36,28,35,28,22,85,65,43,30.06,29.99,29.92,10,10,10,16,7,21,0.00,2,,330
2012-11-2,36,30,25,28,25,22,88,77,68,30.16,30.11,30.06,10,10,10,6,3,,0.00,2,,25
2012-11-3,41,38,34,33,29,27,88,72,59,30.21,30.18,30.14,10,10,7,4,0,,0.00,7,,1
2012-11-4,42,39,36,36,35,33,93,85,76,30.21,30.16,30.11,10,9,7,9,3,,0.00,7,,74
2012-11-5,41,40,38,39,38,36,97,92,80,30.17,30.10,29.92,10,4,1,10,6,,0.03,7,Rain,132
2012-11-6,42,40,38,38,36,34,94,87,76,29.99,29.85,29.76,10,8,4,21,12,28,0.20,7,Rain,281
2012-11-7,45,40,35,36,34,32,91,80,65,30.11,30.05,29.99,10,10,10,8,5,,0.01,5,,213
2012-11-8,53,44,34,39,35,31,87,77,57,30.03,29.95,29.90,10,10,10,14,8,23,0.00,0,,158
2012-11-9,52,43,34,40,37,33,94,79,63,30.02,29.95,29.87,10,9,5,20,8,23,0.00,2,,56
2012-11-10,71,57,43,56,47,39,96,80,47,29.85,29.59,29.44,10,6,1,20,13,25,0.32,6,Rain-Thunderstorm,124
2012-11-11,51,36,21,50,24,12,95,80,69,29.95,29.79,29.52,10,10,4,21,14,28,0.01,8,Rain-Snow,268
2012-11-12,25,22,18,18,15,12,87,78,69,30.29,30.07,29.93,10,9,2,21,12,31,0.00,3,Snow,259
2012-11-13,41,28,15,29,22,12,88,75,55,30.32,30.28,30.24,10,10,10,9,4,,0.00,3,,163
2012-11-14,50,40,29,34,31,28,94,72,51,30.25,30.20,30.13,10,10,7,8,2,,0.00,3,,169
2012-11-15,47,36,24,34,28,17,90,69,47,30.46,30.26,30.09,10,10,10,16,5,17,0.00,1,,283
2012-11-16,43,30,17,29,19,13,88,65,33,30.48,30.40,30.27,10,10,10,9,2,,0.00,0,,139
2012-11-17,55,45,35,37,34,29,83,64,48,30.28,30.21,30.14,10,10,10,17,10,26,0.00,3,,161
2012-11-18,58,50,41,35,33,32,67,54,40,30.15,30.08,30.03,10,10,10,15,10,22,0.00,2,,156
2012-11-19,58,48,38,39,37,34,85,63,48,30.08,30.03,29.99,10,10,10,10,7,16,0.00,2,,176
2012-11-20,51,38,26,36,33,26,99,78,53,30.18,30.11,30.00,10,8,0,7,3,,0.00,0,Fog,255
2012-11-21,62,50,38,43,38,32,80,60,40,30.00,29.85,29.66,10,10,10,17,8,25,0.00,0,,173
2012-11-22,53,38,22,44,35,18,95,79,61,30.04,29.77,29.60,10,9,0,29,13,44,0.00,4,Snow,254
2012-11-23,25,18,12,19,14,10,88,78,68,30.39,30.28,30.05,10,9,2,29,20,41,0.00,6,Snow,300
2012-11-24,29,18,7,20,13,5,89,74,59,30.35,30.06,29.78,10,10,10,12,5,18,0.00,5,,158
2012-11-25,31,27,23,24,21,12,82,73,60,30.17,29.97,29.80,10,10,10,16,9,20,0.00,6,,296
2012-11-26,23,16,9,13,6,3,81,67,53,30.42,30.34,30.18,10,10,10,16,8,20,0.00,1,,293
2012-11-27,40,26,13,25,17,8,89,73,52,30.32,30.18,30.06,10,10,10,14,6,22,0.00,2,,217
2012-11-28,34,28,23,25,22,20,87,75,66,30.32,30.22,30.06,10,10,10,10,4,,0.00,3,,193
2012-11-29,39,28,18,26,23,16,92,76,58,30.08,30.05,30.01,10,10,7,10,3,,0.00,0,,48
2012-11-30,36,30,25,32,28,24,96,87,79,30.15,30.09,30.01,10,6,2,15,6,18,0.00,6,,76